Regional Weather Roundup
Issued by NWS

Home | Current Version | Previous Version | Graphics & Text | Print | Product List | Glossary On
Versions: 1 2 3 4 5 6 7 8 9 10 11 12 13 14 15 16 17 18 19 20 21 22 23 24 25 26 27 28 29 30 31 32 33 34 35 36 37 38 39 40 41 42 43 44 45 46 47 48 49 50
146
ASUS44 KJAN 230103
RWRMS

MISSISSIPPI HOURLY WEATHER ROUNDUP
NATIONAL WEATHER SERVICE JACKSON MS
700 PM CST SAT NOV 22 2014

NOTE: "FAIR: INDICATES FEW OR NO CLOUDS BELOW 12,000 FEET WITH NO
SIGNIFICANT WEATHER AND/OR OBSTRUCTIONS TO VISIBILITY.

MSZ001>002-007>008-010>013-018>021-025>028-034>036-230200-
NORTHWEST MISSISSIPPI

CITY           SKY/WX    TMP DP  RH WIND       PRES   REMARKS
CLARKSDALE     FAIR      59  50  72 SE7       30.04S
CLEVELAND      FAIR      60  53  76 SE7       30.02F
GREENWOOD      CLOUDY    60  48  64 E7        30.04F
GREENVILLE     CLOUDY    60  51  72 SE8       30.00F
GRENADA        FAIR      55  46  71 CALM      30.06S
OLIVE BRANCH   CLEAR     55  41  58 SE6       30.05F
OXFORD         FAIR      57  45  62 SE9       30.08S
TUNICA         PTCLDY    55  45  67 E7        30.04S
$$

MSZ003>006-009-014>017-022>024-029>033-037>039-230200-
NORTHEAST MISSISSIPPI

CITY           SKY/WX    TMP DP  RH WIND       PRES   REMARKS
COLUMBUS AFB   CLOUDY    57  49  76 SE5       30.08F
CORINTH        FAIR      55  41  58 SE3       30.08R
GOLDN TRIANGLE CLOUDY    63  50  63 SE9       30.08S
STARKVILLE     FAIR      61  50  67 SE6       30.07F
TUPELO         CLOUDY    59  46  62 S5        30.08S
$$

MSZ040-058-230200-
CENTRAL MISSISSIPPI

CITY           SKY/WX    TMP DP  RH WIND       PRES   REMARKS
JACKSON INTL   CLOUDY    59  52  77 SE7       30.04S
JACKSON HAWKNS CLOUDY    61  51  70 SE6       30.04S
MERIDIAN KEY   CLOUDY    64  53  67 SE8       30.07F
MERIDIAN NAS   CLOUDY    62  52  69 SE7       30.08S
RAYMOND        FAIR      59  55  88 MISG      30.04S
VICKSBURG      CLOUDY    63  52  67 SE9       30.01F
$$

MSZ059>079-230200-
SOUTH MISSISSIPPI

CITY           SKY/WX    TMP DP  RH WIND       PRES   REMARKS
BROOKHAVEN     FAIR      61  52  72 CALM      30.06S
HATTIESBURG    CLOUDY    64  55  72 E5        30.07S
MCCOMB         CLOUDY    61  53  75 E5        30.03F
NATCHEZ        CLOUDY    64  55  72 E7G16     29.99F
PINE BELT      CLOUDY    63  52  67 SE6       30.07F
$$

MSZ080>082-230200-
COASTAL MISSISSIPPI

CITY           SKY/WX    TMP DP  RH WIND       PRES   REMARKS
BAY ST LOUIS   CLOUDY    64  57  77 E12G21    30.05S
BILOXI         CLOUDY    63  60  92 E9G21     30.05S
PASCAGOULA     CLOUDY    62  59  90 E7        30.06F
GULFPORT       CLOUDY    64  60  87 E15       30.04F
$$



USA.gov is the U.S. government's official web portal to all federal, state and local government web resources and services.